DECAYED

STARLINK-3803, 52381 (Decayed)

Orbit data source: Space-Track

STARLINK-3803, 52381 was a payload satellite owned by SpaceX/Seattle (US) in LEO that was launched on Fri, 29 Apr 2022 UTC via an FALCON 9 launch vehicle from the Air Force Eastern Test Range (AFETR). Payload-class satellites include a variety of spacecraft equipped with specific instruments for various scientific and technological missions. These include communications satellites like Starlink; space stations such as the ISS; scientific satellites like the Hubble; Earth observation satellites from companies like Planet Labs, Umbra, and HawkEye 360; GPS; miniature CubeSats for education and research; and military/defense satellites.

Not visible in the next 10 days
Identifier
52381, 2022-045BC
Orbit
Decayed
Country
Flag of USUS
Related business
Manufacturer
SpaceX/Seattle
Mission
Decayed Commercial Communications
Bus & Motor
STARLINK, Unknown motor
Mass
297 kg wet, ~275 kg dry
Launch date (UTC)
2022-04-29 (4 years ago)
Launch vehicle
FALCON 9
Launch site
Air Force Eastern Test Range (AFETR)
Object type
Payload
Rocket body
Debris
Shape & HBR
Box + 1 Pan, 10.1 m
Radar Cross Section
11.087 m², Large (>1 m²)

Expand to show TLE details & history
Last TLE update: 1 year ago

TLE from 1 year ago
0 STARLINK-3803
1 52381U 22045BC  24364.38160297  .16350163  12484-4  29469-3 0  9998
2 52381  53.2029 320.5224 0004265 190.1713 311.9714 16.47468459150511
Epoch: 2024-12-29T09:09Z
TLE epoch observation values (Epoch: 2024-12-29T09:09:30.496Z)
Latitude
29.55591°
Longitude
-120.1168°
Altitude
145.789 km
Speed
7.824 km/s
True Right ascension
07h 42m 18s
True Declination
29° 23' 41"
Sunlit
Object was in full shadow at epoch
Visualization orbit readout
Latitude
Unknown
Longitude
Unknown
Altitude
Unknown
Speed
Unknown
Apparent Right ascension
Unknown
Apparent Declination
Unknown
Sunlit
N/A
Visualization observer readout
Local Sidereal Time
13:20:32
Azimuth
Unknown
Elevation
Unknown
Doppler factor
Unknown
Orbital elements
Apogee altitude
149.055 km
Perigee altitude
143.489 km
Semi-major axis
6,524.409 km
Eccentricity
0.00043
Inclination
53.2029°
RAAN
320.5224°
Arg. of periapsis
190.1713°
True anomaly
311.93505°
Mean anomaly
311.9714°
Eccentric anomaly
311.95323°
Mean motion
4.11843 °/min
Orbital period
87.41 mins
BSTAR
0.00029469
Loading maneuver chart data...
Computing Atmospheric mass density...
Loading historical data...
Loading historical data...
Loading historical data...
Loading historical data...
Loading historical data...
Loading historical data...
Loading historical data...

Documentation

Showing up to 5 results
|